Printer-friendly version

IAU Minor Planet Center

Minor Planet Center

MPEC 2006-T69 : 2006 TT7

The following Minor Planet Electronic Circular may be linked-to from your own Web pages, but must not otherwise be redistributed electronically.


Read MPEC 2006-T68 Read MPEC 2006-T70


M.P.E.C. 2006-T69                                Issued 2006 Oct. 13, 14:20 UT

     The Minor Planet Electronic Circulars contain information on unusual
         minor planets and routine data on comets.  They are published
   on behalf of Commission 20 of the International Astronomical Union by the
          Minor Planet Center, Smithsonian Astrophysical Observatory,
                          Cambridge, MA 02138, U.S.A.

             Prepared using the Tamkin Foundation Computer Network

                              MPC@CFA.HARVARD.EDU
          URL http://cfa-www.harvard.edu/iau/mpc.html  ISSN 1523-6714

                                   2006 TT7

Observations:
     K06T07T* C2006 10 11.50690 04 29 30.54 -06 02 58.9          19.4 R ET069644
     K06T07T  C2006 10 11.51569 04 29 30.69 -06 02 46.1          19.6 R ET069644
     K06T07T  C2006 10 11.52449 04 29 30.89 -06 02 32.5          19.5 R ET069644
     K06T07T  C2006 10 13.31398 04 30 13.34 -05 17 38.8          18.4 R ET069649
     K06T07T  C2006 10 13.31736 04 30 13.44 -05 17 33.5          19.9 R ET069734
     K06T07T  C2006 10 13.31753 04 30 13.45 -05 17 33.2          19.7 R ET069649
     K06T07T  C2006 10 13.32108 04 30 13.57 -05 17 27.7          19.7 R ET069649
     K06T07T  C2006 10 13.32175 04 30 13.51 -05 17 26.4          19.5 R ET069734
     K06T07T  C2006 10 13.32614 04 30 13.56 -05 17 19.7          19.8 R ET069734
     K06T07T  C2006 10 13.33053 04 30 13.63 -05 17 12.9          19.6 R ET069734
     K06T07T  C2006 10 13.35637 04 30 14.20 -05 16 32.0          19.2 R ET069854
     K06T07T  C2006 10 13.36116 04 30 14.32 -05 16 24.7          19.6 R ET069854
     K06T07T  C2006 10 13.36596 04 30 14.41 -05 16 16.9          19.2 R ET069854

Observer details:
644 Palomar Mountain/NEAT.  Observers M. Brown, R. Bambery, K. Lawrence,
    M. Hicks, E. Helin, R. Thicksten.  1.2-m Schmidt + CCD.
649 Powell Observatory, Louisburg.  Observers R. Trentman, R. Fredrick.
    0.75-m Newtonian reflector + CCD.
734 Farpoint Observatory.  Observer G. Hug.  0.7-m reflector + CCD.
854 Sabino Canyon Observatory, Tucson.  Observer J. E. McGaha.  0.36-m f/10.0
    Schmidt-Cassegrain + CCD.

Orbital elements:
2006 TT7
Epoch 2006 Sept. 22.0 TT = JDT 2454000.5                MPC
M 359.04028              (2000.0)            P               Q
n   0.19606686     Peri.  315.44672     +0.91012402     -0.30317667
a   2.9344941      Node    64.16044     +0.40961721     +0.76094503
e   0.5349157      Incl.   18.28766     -0.06235390     +0.57362581
P   5.03           H   19.2           G   0.15           U   9
Residuals in seconds of arc
061011 644  0.2+  0.0     061013 649  0.4+  0.2-    061013 854  1.0-  0.1-
061011 644  0.3-  0.3-    061013 649  1.4+  0.1-    061013 854  0.2-  0.1-
061011 644  0.0   0.3+    061013 734  0.1+  0.2+    061013 854  0.1+  0.3+
061013 649  0.5-  0.3-    061013 734  0.1-  0.2+
061013 734  0.0   0.2-    061013 734  0.1-  0.3+

Ephemeris:
2006 TT7                 a,e,i = 2.93, 0.53, 18                  q = 1.3648
Date    TT    R. A. (2000) Decl.     Delta      r     Elong.  Phase     V
2006 10 12    04 29.72   -05 50.6    0.512    1.374   128.0    34.9    19.9
2006 10 22    04 30.85   -01 14.5    0.486    1.391   137.1    29.1    19.6
2006 11 01    04 26.08   +04 14.2    0.472    1.416   148.3    21.6    19.4
2006 11 11    04 16.43   +10 16.9    0.475    1.447   161.0    12.9    19.1
2006 11 21    04 04.00   +16 16.9    0.499    1.485   174.2     3.8    18.9
2006 12 01    03 51.81   +21 35.9    0.546    1.528   171.8     5.3    19.2
2006 12 11    03 42.62   +25 52.9    0.615    1.576   159.7    12.5    19.9
2006 12 21    03 37.98   +29 08.2    0.705    1.628   148.9    18.2    20.4
2006 12 31    03 38.36   +31 33.9    0.812    1.683   139.2    22.4    21.0
2007 01 10    03 43.36   +33 23.2    0.933    1.741   130.6    25.4    21.4
2007 01 20    03 52.25   +34 46.5    1.067    1.801   122.8    27.4    21.8

Kyle E. Smalley              (C) Copyright 2006 MPC           M.P.E.C. 2006-T69

Read MPEC 2006-T68 Read MPEC 2006-T70


Our Web policy. Index to the CBAT/MPC/ICQ pages.


Valid HTML 4.01!